Ana Sayfa
METAR-TAF:

METAR-TAF

Havaalanları :

Sapporo, Japonya

Enlem: 43-07N, Boylam: 141-23E, yükseklik: 8 m

Güncel hava durumu gözlemi

Rapor saat 08:00 UTC de 41 dakika önce yapıldı.
Rüzgar batı/kuzeybatıdan 9 kt
Sıcaklık -1°C
Nem 46%
Basınç 1011 hPa
Görüş mesafesi 10 km veya daha fazla
1000 ft yükseklikte az bulutlu
4000 ft yükseklikte parçalı çok bulutlu

METAR: RJCO 240800Z 29009KT 9999 FEW010 BKN040 M01/M11 Q1011

Saat: 17:41 (08:41 UTC)


TAF: eksik

4.000'den fazla havaalanı için hava durumu gözlemleri ve tahminleri (METAR ve TAF raporları).

Kullanılabilir istasyonlar harita üzerinde sarı ve kırmızı noktalarla gösterilir.

İstasyonun adını görmek için fareyi noktanın üzerinde gezdirin.

Sonrasında hava gözlem ve tahminlerini görmek için tıklayın.

Haritayı değiştirmek için: yaklaştırmak için siyah artı işaretli yeşil düğmeye ve uzaklaştırmak için de eksi işaretli düğmeye hızla tıklayın; bitişik haritalar için yeşil okları kullanın.


METAR-TAF: